Starlink 5655

operational
NORAD ID: 55336 Int'l Des: 2023-013 Owner: SPXS Country: US Constellation: starlink
LEOCIRCULAR

Über Starlink 5655

Beschreibung wird geladen...

Live-Position

3D-Globus wird geladen...

Nächste Überflüge

Höhenverlauf

Altitude vs Time

uPlot chart will show altitude changes over time

Zweizeiliger Elementsatz

1 55336U 23013F 25258.10607529 .00001258 00000-0 10819-3 0 9991
2 55336 43.0023 161.5974 0001198 273.5126 86.5580 15.02541780145447
Epoch: 15. Sept. 2025 • Age: 20 hours

Aktueller Status

Höhe 569.6 km
Geschwindigkeit 7.58 km/s
Subsatellitenpunkt -37.91°S, 56.45°E
Startdatum 26. Jan. 2023
Alter 2.6 years
Typ internet

Technische Details

Klassifizierung Payload
Masse 305.00 kg
Trockenmasse 290.00 kg
Gesamtmasse 305.00 kg
Länge 0.20 m
Durchmesser 2.80 m
Spannweite 9.00 m
Form Box + pan
Hersteller SPXS
Bus-Typ Starlink
Phasenstatus In Orbit
Besitzer/Staat SPXS/US

Große Konstellationen

Loading constellations...